Preview of NWS' New Version of Forecast
This preview is not operational and should not be used for support decisions.

Regional Weather Roundup (RWR)

Issued by National Weather Service (NWS)

                            
000
ASCA42 TJSJ 181610
RWRPR 
PUERTO RICO/U.S. VIRGIN ISLANDS HOURLY WEATHER ROUNDUP
NATIONAL WEATHER SERVICE SAN JUAN PR
1200 PM AST WED SEP 18 2019

PRZ001>002-007>008-010-181700-
PUERTO RICO
  
CITY           SKY/WX    TMP DP  RH WIND       PRES   REMARKS
SAN JUAN LMM   MOSUNNY   90  75  62 E18G24    29.87S HX 100           
AGUADILLA      PTSUNNY   86  75  70 E10       29.89S HX  95           
CEIBA          SUNNY     90  79  70 SE14      29.90S HX 105           
$$

VIZ001>002-181700-
U.S. VIRGIN ISLANDS
  
CITY           SKY/WX    TMP DP  RH WIND       PRES   REMARKS
CHARLOTTE AMA  MOSUNNY   90  73  58 SE14G21   29.88S HX  98           
CHRISTIANSTED  MOSUNNY   90  73  58 E16       29.89S HX  98           
$$

HOURLY WEATHER ROUNDUP FOR THE NEWS MEDIA
  
CITY           SKY/WX    TMP DP  RH WIND       PRES   REMARKS
ORLANDO        FAIR      87  73  62 E8        30.00F HX  94           
NEW YORK       PTSUNNY   67  52  58 NE14      30.25F                  
NEWARK         PTSUNNY   66  49  54 NE10      30.24F                  
CHICAGO        FAIR      75  61  61 SW8       30.14R                  
HARTFORD       PTSUNNY   62  46  55 NE13G23   30.25S                  
BOSTON         FAIR      63  41  44 N16       30.30S                  
DALLAS         MOSUNNY   84  70  62 E6        29.96R                  
PHILADELPHIA   PTSUNNY   74  51  44 N8        30.23S                  
LOS ANGELES    MOSUNNY   73  62  68 E9        29.94R                  
WASHINGTON DC  PTSUNNY   71  54  54 NE5       30.21F